Home > Weather > Teresina > Past weeks

Flag for Brazil Past Weather in Teresina, Piauí, Brazil — Yesterday and Last 2 Weeks

Now
77 °F

Clear.


Feels Like: 79 °F
Forecast: 73 / 94 °F
Wind: No wind

Location: Teresina Aeroporto

Current Time: Jul 2, 2016 at 1:04:02 AM

Latest Report: Jul 2, 2016 at 12:00 AM


Visibility: 10 mi

Pressure: 29.95 "Hg

Humidity: 65%

Dew Point: 64 °F

Location of TeresinaLocation

Past Weather in Teresina — Graph

°F

Teresina Temperature Yesterday

Maximum temperature yesterday: 95 °F (at 4:00 PM)
Minimum temperature yesterday: 70 °F (at 5:00 AM)
Average temperature yesterday: 82 °F

High & Low Weather Summary for the Past Weeks

 TemperatureHumidityPressure
High95 °F (Jun 19, 4:00 PM)89% (Jun 17, 6:00 AM)30.04 "Hg (Jun 17, 6:00 AM)
Low70 °F (Jul 1, 5:00 AM)24% (Jun 30, 5:00 PM)29.80 "Hg (Jun 27, 8:00 AM)
Average84 °F56%29.93 "Hg
* Reported Jun 17 12:00 AM — Jul 2 12:00 AM, Teresina, Weather by CustomWeather, © 2016

Note: Actual official high and low records may vary slightly from our data, if they occured in-between our weather recording intervals... More about our weather records

Advertising

Teresina Weather History for the Previous 24 Hours

Scroll right to see more
 ConditionsComfort  
Time TempWeatherWind HumidityBarometerVisibility
12:00 AM
Sat, Jul 2
77 °FClear.No wind65%29.95 "Hg10 mi
11:00 PM
Fri, Jul 1
77 °FClear.6 mph65%29.95 "Hg10 mi
10:00 PM81 °FClear.No wind58%29.95 "Hg10 mi
9:00 PM81 °FClear.No wind58%29.92 "Hg10 mi
8:00 PM82 °FClear.No wind51%29.92 "Hg10 mi
7:00 PM86 °FClear.No wind43%29.89 "Hg10 mi
6:00 PM91 °FPassing clouds.5 mph32%29.86 "HgN/A
5:00 PM93 °FScattered clouds.5 mph30%29.86 "HgN/A
4:00 PM95 °FScattered clouds.8 mph28%29.86 "HgN/A
3:00 PM93 °FScattered clouds.6 mph32%29.86 "HgN/A
2:00 PM93 °FSunny.8 mph32%29.89 "Hg10 mi
1:00 PM91 °FSunny.8 mph36%29.92 "Hg10 mi
12:00 PM90 °FSunny.10 mph38%29.98 "Hg10 mi
11:00 AM88 °FSunny.10 mph43%29.98 "Hg10 mi
10:00 AM86 °FSunny.8 mph46%30.01 "Hg10 mi
9:00 AM82 °FSunny.7 mph51%30.01 "Hg10 mi
8:00 AM77 °FSunny.6 mph61%30.01 "Hg10 mi
7:00 AM73 °FSunny.No wind74%29.98 "Hg10 mi
6:00 AM70 °FSunny.No wind83%29.98 "Hg10 mi
5:00 AM70 °FClear.No wind83%29.95 "Hg10 mi
4:00 AM72 °FClear.No wind78%29.95 "Hg10 mi
3:00 AM72 °FClear.No wind78%29.95 "Hg10 mi
2:00 AM72 °FClear.No wind83%29.95 "Hg10 mi
1:00 AM72 °FClear.No wind83%29.95 "Hg10 mi
Weather by CustomWeather, © 2016

See weather overviewHow to use our weather pages